Voltar ao catálogo

ONEWEB-0548

AtivoComunicaçõesPO
NORAD 56050·PAYLOAD·🇬🇧 United Kingdom

Lançado Mar 26, 2023 de Satish Dhawan Space Centre

Loading…

Próximas Passagens (próximas 24 horas)

TLE

AtualizadoSource: CelesTrak SupGP

Época: Sep 14, 2026, 23:16 UTC

1 56050C 23043E   26257.96963377 -.00002752  00000+0 -72069-2 0  2570
2 56050  87.9146 210.9417 0002470  85.3347 355.7960 13.16594523    15

Acompanhe ONEWEB-0548 em tempo real com AllMySat

Download on the App Store